This is the latest recevied weather packets stored in our database for station/object KD4EG. If no packets are shown the sender has not sent any weather packets the latest 10 day(s).
| Time | Temp. | Humidity | Pressure | Rain* | Wind** | Luminosity | Snow |
|---|---|---|---|---|---|---|---|
| 1777718868 | 9.44° C | 54% | 1016.2 hPa | 0 mm | - | 12 W/m² | - |
| 1777718566 | 9.44° C | 52% | 1016.2 hPa | 0 mm | - | 10 W/m² | - |
| 1777718263 | 9.44° C | 51% | 1016.3 hPa | 0 mm | - | 5 W/m² | - |
| 1777717960 | 9.44° C | 51% | 1016.3 hPa | 0 mm | - | 3 W/m² | - |
| 1777717657 | 9.44° C | 52% | 1016.4 hPa | 0 mm | - | 1 W/m² | - |
| 1777717354 | 9.44° C | 52% | 1016.2 hPa | 0 mm | - | 0 W/m² | - |
| 1777717052 | 10° C | 51% | 1016 hPa | 0 mm | - | 0 W/m² | - |
| 1777716750 | 10° C | 50% | 1016.3 hPa | 0 mm | - | 0 W/m² | - |
| 1777716447 | 10° C | 50% | 1016.3 hPa | 0 mm | - | 0 W/m² | - |
| 1777716146 | 10° C | 50% | 1016.4 hPa | 0 mm | - | 0 W/m² | - |
| 1777715844 | 10° C | 50% | 1016 hPa | 0 mm | - | 0 W/m² | - |
| 1777715541 | 10° C | 49% | 1016 hPa | 0 mm | - | 0 W/m² | - |
| 1777715239 | 10° C | 49% | 1016.4 hPa | 0 mm | - | 0 W/m² | - |
| 1777714936 | 10° C | 50% | 1016.3 hPa | 0 mm | - | 0 W/m² | - |
| 1777714634 | 10° C | 50% | 1016.2 hPa | 0 mm | - | 0 W/m² | - |
| 1777714332 | 10° C | 51% | 1016.3 hPa | 0 mm | - | 0 W/m² | - |
| 1777714029 | 10.56° C | 50% | 1015.9 hPa | 0 mm | - | 0 W/m² | - |
| 1777713727 | 10° C | 50% | 1016 hPa | 0 mm | - | 0 W/m² | - |
| 1777713424 | 10.56° C | 52% | 1015.8 hPa | 0 mm | - | 0 W/m² | - |
| 1777713120 | 10.56° C | 50% | 1016.2 hPa | 0 mm | - | 0 W/m² | - |
| 1777712818 | 10° C | 53% | 1015.9 hPa | 0 mm | - | 0 W/m² | - |
| 1777712514 | 10° C | 56% | 1015.9 hPa | 0 mm | - | 0 W/m² | - |
| 1777712211 | 10.56° C | 56% | 1016 hPa | 0 mm | - | 0 W/m² | - |
| 1777711908 | 10.56° C | 54% | 1015.9 hPa | 0 mm | - | 0 W/m² | - |
| 1777711605 | 10.56° C | 57% | 1016.2 hPa | 0 mm | - | 0 W/m² | - |
* Rain latest hour (hover to see other rain measurements)
** Current wind speed in m/s (hover to see current wind gust speed)